When you browse on this site, cookies collect data to enhance your experience and personalize the content and advertising you see.
Visit our Privacy Policy to learn more. By continuing to use the site, you agree to this use of cookies and data.
  • In Latvia
  • List of Countries
  • For 7 days
  • Water Temperature
  • Weather Map
  • Weather Widgets
  • user-avatar
    Login

    Hourly Weather Kachkan

    Today, 24 August, Saturday

    Time Temperature Precipitation Wind Pressure Humidity
    00:00 +27°C° 0 mm 4 mps 750 mmHg 49%
    01:00 +27°C° 0 mm 5 mps 750 mmHg 50%
    02:00 +27°C° 0 mm 5 mps 750 mmHg 51%
    03:00 +26°C° 0 mm 5 mps 750 mmHg 54%
    04:00 +26°C° 0 mm 5 mps 751 mmHg 56%
    05:00 +25°C° 0 mm 5 mps 751 mmHg 58%
    06:00 +25°C° 0 mm 5 mps 751 mmHg 60%
    07:00 +27°C° 0 mm 5 mps 751 mmHg 54%
    08:00 +28°C° 0 mm 6 mps 751 mmHg 49%
    09:00 +30°C° 0 mm 6 mps 752 mmHg 43%
    10:00 +33°C° 0 mm 6 mps 751 mmHg 40%
    11:00 +34°C° 0 mm 6 mps 751 mmHg 36%
    12:00 +36°C° 0 mm 6 mps 751 mmHg 32%
    13:00 +36°C° 0 mm 6 mps 751 mmHg 32%
    14:00 +38°C° 0 mm 6 mps 751 mmHg 31%
    15:00 +37°C° 0 mm 5 mps 751 mmHg 32%
    16:00 +36°C° 0 mm 6 mps 751 mmHg 33%
    17:00 +36°C° 0 mm 6 mps 751 mmHg 34%
    18:00 +35°C° 0 mm 6 mps 751 mmHg 35%
    19:00 +33°C° 0 mm 6 mps 751 mmHg 38%
    20:00 +32°C° 0 mm 6 mps 751 mmHg 41%
    21:00 +29°C° 0 mm 6 mps 751 mmHg 44%
    22:00 +28°C° 0 mm 6 mps 751 mmHg 46%
    23:00 +27°C° 0 mm 5 mps 751 mmHg 49%

    Tomorrow, 25 August, Sunday

    Time Temperature Precipitation Wind Pressure Humidity
    00:00 +26°C° 0 mm 5 mps 751 mmHg 52%
    01:00 +26°C° 0 mm 5 mps 751 mmHg 55%
    02:00 +25°C° 0 mm 5 mps 751 mmHg 58%
    03:00 +23°C° 0 mm 4 mps 751 mmHg 61%
    04:00 +23°C° 0 mm 5 mps 751 mmHg 63%
    05:00 +23°C° 0 mm 5 mps 751 mmHg 64%
    06:00 +22°C° 0 mm 5 mps 751 mmHg 65%
    07:00 +25°C° 0 mm 5 mps 751 mmHg 61%
    08:00 +26°C° 0 mm 6 mps 752 mmHg 56%
    09:00 +28°C° 0 mm 6 mps 752 mmHg 52%
    10:00 +29°C° 0 mm 6 mps 752 mmHg 47%
    11:00 +32°C° 0 mm 6 mps 752 mmHg 42%
    12:00 +34°C° 0 mm 6 mps 751 mmHg 38%
    13:00 +34°C° 0 mm 6 mps 751 mmHg 36%
    14:00 +34°C° 0 mm 6 mps 751 mmHg 35%
    15:00 +35°C° 0 mm 6 mps 751 mmHg 34%
    16:00 +34°C° 0 mm 6 mps 751 mmHg 35%
    17:00 +33°C° 0 mm 6 mps 751 mmHg 37%
    18:00 +33°C° 0 mm 6 mps 751 mmHg 39%
    19:00 +30°C° 0 mm 6 mps 752 mmHg 41%
    20:00 +29°C° 0 mm 6 mps 752 mmHg 43%
    21:00 +27°C° 0 mm 6 mps 753 mmHg 45%
    22:00 +26°C° 0 mm 6 mps 753 mmHg 43%
    23:00 +24°C° 0 mm 6 mps 753 mmHg 42%

    Day after tomorrow, 26 August, Monday

    Time Temperature Precipitation Wind Pressure Humidity
    00:00 +23°C° 0 mm 6 mps 753 mmHg 40%
    01:00 +23°C° 0 mm 6 mps 753 mmHg 42%
    02:00 +22°C° 0 mm 5 mps 754 mmHg 44%
    03:00 +22°C° 0 mm 5 mps 754 mmHg 46%
    04:00 +21°C° 0 mm 5 mps 754 mmHg 52%
    05:00 +21°C° 0 mm 5 mps 754 mmHg 58%
    06:00 +20°C° 0 mm 6 mps 754 mmHg 64%
    07:00 +21°C° 0 mm 6 mps 754 mmHg 59%
    08:00 +23°C° 0 mm 6 mps 755 mmHg 54%
    09:00 +24°C° 0 mm 6 mps 755 mmHg 49%
    10:00 +27°C° 0 mm 6 mps 755 mmHg 45%
    11:00 +28°C° 0 mm 5 mps 755 mmHg 41%
    12:00 +29°C° 0 mm 5 mps 755 mmHg 36%
    13:00 +30°C° 0 mm 5 mps 755 mmHg 34%
    14:00 +30°C° 0 mm 5 mps 754 mmHg 32%
    15:00 +32°C° 0 mm 5 mps 754 mmHg 30%
    16:00 +30°C° 0 mm 5 mps 754 mmHg 31%
    17:00 +30°C° 0 mm 5 mps 754 mmHg 33%
    18:00 +29°C° 0 mm 5 mps 754 mmHg 34%
    19:00 +27°C° 0 mm 5 mps 754 mmHg 35%
    20:00 +25°C° 0 mm 4 mps 754 mmHg 37%
    21:00 +23°C° 0 mm 4 mps 754 mmHg 38%
    22:00 +22°C° 0 mm 4 mps 754 mmHg 38%
    23:00 +21°C° 0 mm 4 mps 754 mmHg 38%

    27 August, Tuesday

    Time Temperature Precipitation Wind Pressure Humidity
    00:00 +20°C° 0 mm 4 mps 754 mmHg 37%
    01:00 +20°C° 0 mm 4 mps 754 mmHg 39%
    02:00 +19°C° 0 mm 4 mps 754 mmHg 41%
    03:00 +19°C° 0 mm 4 mps 753 mmHg 43%
    04:00 +18°C° 0 mm 3 mps 753 mmHg 46%
    05:00 +18°C° 0 mm 3 mps 753 mmHg 48%
    06:00 +17°C° 0 mm 3 mps 753 mmHg 51%
    07:00 +20°C° 0 mm 3 mps 753 mmHg 46%
    08:00 +22°C° 0 mm 3 mps 753 mmHg 40%
    09:00 +25°C° 0 mm 3 mps 753 mmHg 35%
    10:00 +27°C° 0 mm 3 mps 753 mmHg 32%
    11:00 +28°C° 0 mm 3 mps 752 mmHg 30%
    12:00 +29°C° 0 mm 2 mps 752 mmHg 27%
    13:00 +30°C° 0 mm 2 mps 752 mmHg 25%
    14:00 +30°C° 0 mm 2 mps 751 mmHg 23%
    15:00 +31°C° 0 mm 3 mps 751 mmHg 22%
    16:00 +30°C° 0 mm 3 mps 751 mmHg 22%
    17:00 +29°C° 0 mm 4 mps 750 mmHg 23%
    18:00 +29°C° 0 mm 4 mps 750 mmHg 23%
    19:00 +27°C° 0 mm 4 mps 750 mmHg 27%
    20:00 +25°C° 0 mm 4 mps 750 mmHg 31%
    21:00 +22°C° 0 mm 4 mps 750 mmHg 34%
    22:00 +21°C° 0 mm 4 mps 750 mmHg 37%
    23:00 +20°C° 0 mm 3 mps 750 mmHg 40%

    28 August, Wednesday

    Time Temperature Precipitation Wind Pressure Humidity
    00:00 +19°C° 0 mm 3 mps 750 mmHg 43%
    01:00 +19°C° 0 mm 3 mps 750 mmHg 46%
    02:00 +18°C° 0 mm 3 mps 750 mmHg 49%
    03:00 +18°C° 0 mm 3 mps 749 mmHg 51%
    04:00 +17°C° 0 mm 3 mps 749 mmHg 55%
    05:00 +17°C° 0 mm 3 mps 750 mmHg 59%
    06:00 +17°C° 0 mm 4 mps 750 mmHg 63%
    07:00 +19°C° 0 mm 4 mps 750 mmHg 61%
    08:00 +20°C° 0 mm 5 mps 750 mmHg 58%
    09:00 +22°C° 0 mm 5 mps 750 mmHg 55%
    10:00 +23°C° 0 mm 6 mps 750 mmHg 48%
    11:00 +24°C° 0 mm 6 mps 750 mmHg 42%
    12:00 +26°C° 0 mm 6 mps 750 mmHg 35%
    13:00 +26°C° 0 mm 6 mps 750 mmHg 34%
    14:00 +26°C° 0 mm 6 mps 750 mmHg 33%
    15:00 +26°C° 0 mm 6 mps 750 mmHg 31%
    16:00 +24°C° 0 mm 6 mps 750 mmHg 31%
    17:00 +24°C° 0 mm 6 mps 750 mmHg 31%
    18:00 +23°C° 0 mm 5 mps 750 mmHg 30%
    19:00 +21°C° 0 mm 5 mps 751 mmHg 34%
    20:00 +19°C° 0 mm 5 mps 751 mmHg 37%
    21:00 +17°C° 0 mm 4 mps 751 mmHg 40%
    22:00 +15°C° 0 mm 4 mps 752 mmHg 41%
    23:00 +14°C° 0 mm 4 mps 752 mmHg 42%

    29 August, Thursday

    Time Temperature Precipitation Wind Pressure Humidity
    00:00 +13°C° 0 mm 4 mps 752 mmHg 43%
    01:00 +12°C° 0 mm 4 mps 752 mmHg 47%
    02:00 +11°C° 0 mm 3 mps 752 mmHg 50%
    03:00 +11°C° 0 mm 3 mps 753 mmHg 54%
    04:00 +10°C° 0 mm 3 mps 753 mmHg 56%
    05:00 +10°C° 0 mm 3 mps 753 mmHg 58%
    06:00 +9°C° 0 mm 3 mps 753 mmHg 60%
    07:00 +10°C° 0 mm 4 mps 754 mmHg 55%
    08:00 +12°C° 0 mm 4 mps 754 mmHg 50%
    09:00 +13°C° 0 mm 5 mps 754 mmHg 45%
    10:00 +14°C° 0 mm 5 mps 754 mmHg 41%
    11:00 +16°C° 0 mm 5 mps 754 mmHg 36%
    12:00 +17°C° 0 mm 5 mps 754 mmHg 32%
    13:00 +19°C° 0 mm 5 mps 753 mmHg 31%
    14:00 +20°C° 0 mm 5 mps 753 mmHg 30%
    15:00 +21°C° 0 mm 5 mps 753 mmHg 29%
    16:00 +20°C° 0 mm 5 mps 753 mmHg 29%
    17:00 +20°C° 0 mm 5 mps 753 mmHg 30%
    18:00 +19°C° 0 mm 5 mps 753 mmHg 31%
    19:00 +18°C° 0 mm 4 mps 753 mmHg 36%
    20:00 +15°C° 0 mm 4 mps 753 mmHg 41%
    21:00 +13°C° 0 mm 4 mps 753 mmHg 46%
    22:00 +13°C° 0 mm 4 mps 753 mmHg 49%
    23:00 +12°C° 0 mm 4 mps 754 mmHg 52%
    Show more